Tracking 19831 objects as of 23-Aug-2019
HD Live streaming from Space Station
objects crossing your sky now

COSMOS 2251 DEB

Track COSMOS 2251 DEB now!
10-day predictions


NORAD ID: 38061
Int'l Code: 1993-036BRT
Perigee: 504.3 km
Apogee: 508.0 km
Inclination: 73.9 °
Period: 94.6 minutes
Semi major axis: 6877 km
RCS: 0.052 m2 (small)
Launch date: June 16, 1993
Source: Commonwealth of Independent States (former USSR) (CIS)
Launch site: PLESETSK MISSILE AND SPACE COMPLEX (PKMTR)

Note: This is SATELLITE DEBRIS
aabbcc
Your satellite tracking list
Your tracking list is empty




NASA's NSSDC Master Catalog

Two Line Element Set (TLE):
1 38061U 93036BRT 19234.55016518 +.00017887 +00000-0 +77716-3 0  9991
2 38061 073.9491 184.0529 0002734 185.0694 175.0477 15.22262592394352
Source of the keplerian elements: AFSPC